Date String (YYYY-MM-DD hh:mm:ss) UTC,Instrument flags,absolute air pressure of the measurement (hPa),sample flow rate (lpm),inlet stack bypass flow (lpm),air temperature of the measurement (°C),ambient temperature measured by the external sensor (°C),aerosol sample conditioner tube jacket temperature (°C),OPC LED temperature (°C),internal box temperature (°C),relative humidity of the measurement (%),span deviation,mass concentration of particles derived from Lorenz-Mie calculation of OPC scattering (μg/m³),mass concentration of particles derived from Lorenz-Mie calculation of OPC scattering (μg/m³),mass concentration of particles derived from Lorenz-Mie calculation of OPC scattering (μg/m³)
DateTimeUTC,F1_M11,P_M11,Q1_M11,Q2_M11,T1_M11,T2_M11,T3_M11,T4_M11,T5_M11,U1_M11,ZSPAN_M11,X0_M11,X2_M11,X1_M11
2023-06-12 01:00:00,SystemResetWarning,0831.3,5.00,000.00,029.9,028.5,000.0,038.4,031.5,30.2,0000.0,0008.65,0004.85,0004.36
2023-06-12 01:01:00,SystemResetWarning,0831.2,4.99,000.00,029.9,028.3,000.0,038.4,031.5,30.6,0000.0,0008.67,0004.84,0004.35
2023-06-12 01:02:00,SystemResetWarning,0831.2,4.99,000.00,029.9,026.4,000.0,038.4,031.5,30.9,0000.0,0008.70,0004.83,0004.34
2023-06-12 01:03:00,SystemResetWarning,0831.2,5.01,000.00,029.9,025.0,000.0,038.3,031.5,30.6,0000.0,0009.03,0004.86,0004.33
2023-06-12 01:04:00,SystemResetWarning,0831.2,5.00,000.00,029.8,024.9,000.0,038.3,031.1,30.7,0000.0,0009.64,0004.86,0004.33
2023-06-12 01:05:00,SystemResetWarning,0831.2,5.01,000.00,029.7,025.3,000.0,038.3,030.9,31.8,0000.0,0010.33,0004.87,0004.33
2023-06-12 01:06:00,SystemResetWarning,0831.2,5.00,000.00,029.6,025.7,000.0,038.3,030.9,31.3,0000.0,0010.38,0004.85,0004.33
2023-06-12 01:07:00,SystemResetWarning,0831.2,4.99,000.00,029.6,026.1,000.0,038.2,030.9,30.8,0000.0,0010.57,0004.85,0004.33
2023-06-12 01:08:00,SystemResetWarning,0831.2,5.00,000.00,029.6,026.4,000.0,038.2,030.9,31.1,0000.0,0010.28,0004.86,0004.33
2023-06-12 01:09:00,SystemResetWarning,0831.2,5.01,000.00,029.6,026.8,000.0,038.2,031.0,30.9,0000.0,0009.92,0004.82,0004.32
2023-06-12 01:10:00,SystemResetWarning,0831.2,5.01,000.00,029.5,027.0,000.0,038.2,031.0,31.5,0000.0,0010.42,0004.80,0004.32
2023-06-12 01:11:00,SystemResetWarning,0831.2,5.00,000.00,029.5,027.2,000.0,038.2,031.0,31.4,0000.0,0010.34,0004.78,0004.31
2023-06-12 01:12:00,SystemResetWarning,0831.1,5.00,000.00,029.5,027.4,000.0,038.2,031.0,31.2,0000.0,0010.27,0004.75,0004.31
2023-06-12 01:13:00,SystemResetWarning,0831.1,4.99,000.00,029.5,027.5,000.0,038.2,031.1,31.2,0000.0,0010.25,0004.75,0004.30
2023-06-12 01:14:00,SystemResetWarning,0831.1,5.00,000.00,029.5,027.6,000.0,038.2,031.1,30.8,0000.0,0010.66,0004.71,0004.29
2023-06-12 01:15:00,SystemResetWarning,0830.9,5.00,000.00,029.5,027.7,000.0,038.1,031.1,30.4,0000.0,0010.27,0004.71,0004.29
2023-06-12 01:16:00,SystemResetWarning,0830.9,4.99,000.00,029.5,027.8,000.0,038.1,031.1,30.7,0000.0,0009.42,0004.70,0004.28
2023-06-12 01:17:00,SystemResetWarning,0830.9,5.00,000.00,029.6,027.8,000.0,038.1,031.1,30.4,0000.0,0009.47,0004.70,0004.26
2023-06-12 01:18:00,SystemResetWarning,0830.9,5.00,000.00,029.6,027.9,000.0,038.1,031.1,30.1,0000.0,0009.39,0004.69,0004.24
2023-06-12 01:19:00,SystemResetWarning,0830.9,5.00,000.00,029.6,027.9,000.0,038.1,031.1,29.1,0000.0,0009.27,0004.66,0004.21
2023-06-12 01:20:00,SystemResetWarning,0830.9,5.00,000.00,029.6,028.0,000.0,038.1,031.2,29.7,0000.0,0009.43,0004.67,0004.18
2023-06-12 01:21:00,SystemResetWarning,0830.9,4.99,000.00,029.6,028.0,000.0,038.1,031.2,30.2,0000.0,0009.17,0004.67,0004.17
2023-06-12 01:22:00,SystemResetWarning,0830.9,5.00,000.00,029.6,028.0,000.0,038.1,031.2,30.3,0000.0,0008.98,0004.66,0004.17
2023-06-12 01:23:00,SystemResetWarning,0831.0,5.00,000.00,029.6,028.1,000.0,038.2,031.2,29.7,0000.0,0008.95,0004.65,0004.15
2023-06-12 01:24:00,SystemResetWarning,0831.0,5.00,000.00,029.6,028.1,000.0,038.2,031.3,29.7,0000.0,0008.83,0004.61,0004.13
2023-06-12 01:25:00,SystemResetWarning,0831.0,5.00,000.00,029.7,028.1,000.0,038.2,031.3,30.0,0000.0,0008.43,0004.60,0004.13
2023-06-12 01:26:00,SystemResetWarning,0831.0,5.00,000.00,029.7,028.2,000.0,038.2,031.3,30.2,0000.0,0008.08,0004.58,0004.12
2023-06-12 01:27:00,SystemResetWarning,0831.1,5.00,000.00,029.7,028.2,000.0,038.2,031.3,30.1,0000.0,0008.15,0004.59,0004.11
2023-06-12 01:28:00,SystemResetWarning,0831.2,5.01,000.00,029.7,028.3,000.0,038.2,031.3,29.9,0000.0,0008.01,0004.59,0004.12
2023-06-12 01:29:00,SystemResetWarning,0831.1,4.98,000.00,029.7,028.3,000.0,038.2,031.3,29.9,0000.0,0007.95,0004.59,0004.13
2023-06-12 01:30:00,SystemResetWarning,0831.2,4.99,000.00,029.7,028.3,000.0,038.2,031.3,30.1,0000.0,0007.83,0004.58,0004.13
2023-06-12 01:31:00,SystemResetWarning,0831.2,4.99,000.00,029.7,028.3,000.0,038.3,031.3,30.0,0000.0,0007.63,0004.56,0004.15
2023-06-12 01:32:00,SystemResetWarning,0831.2,5.01,000.00,029.7,028.3,000.0,038.3,031.2,30.0,0000.0,0007.42,0004.56,0004.15
2023-06-12 01:33:00,SystemResetWarning,0831.2,5.01,000.00,029.7,028.3,000.0,038.3,031.2,30.1,0000.0,0007.49,0004.57,0004.15
2023-06-12 01:34:00,SystemResetWarning,0831.2,4.99,000.00,029.7,028.3,000.0,038.3,031.2,30.1,0000.0,0007.54,0004.58,0004.16
2023-06-12 01:35:00,SystemResetWarning,0831.2,4.99,000.00,029.7,028.3,000.0,038.3,031.2,30.2,0000.0,0007.65,0004.59,0004.15
2023-06-12 01:36:00,SystemResetWarning,0831.2,5.00,000.00,029.7,028.2,000.0,038.3,031.2,30.0,0000.0,0007.66,0004.58,0004.13
2023-06-12 01:37:00,SystemResetWarning,0831.2,5.00,000.00,029.7,028.2,000.0,038.3,031.2,29.9,0000.0,0007.79,0004.59,0004.12
2023-06-12 01:38:00,SystemResetWarning,0831.2,5.00,000.00,029.7,028.2,000.0,038.3,031.2,29.9,0000.0,0007.84,0004.59,0004.11
2023-06-12 01:39:00,SystemResetWarning,0831.2,5.00,000.00,029.7,028.2,000.0,038.3,031.2,30.2,0000.0,0007.80,0004.57,0004.10
2023-06-12 01:40:00,SystemResetWarning,0831.1,5.00,000.00,029.7,028.2,000.0,038.3,031.2,30.2,0000.0,0007.71,0004.54,0004.09
2023-06-12 01:41:00,SystemResetWarning,0831.1,5.00,000.00,029.7,028.2,000.0,038.3,031.2,29.8,0000.0,0007.72,0004.53,0004.06
2023-06-12 01:42:00,SystemResetWarning,0831.1,5.00,000.00,029.7,028.2,000.0,038.3,031.2,30.1,0000.0,0008.26,0004.53,0004.04
2023-06-12 01:43:00,SystemResetWarning,0831.1,5.01,000.00,029.7,028.2,000.0,038.3,031.1,30.1,0000.0,0008.28,0004.49,0004.02
2023-06-12 01:44:00,SystemResetWarning,0831.1,5.01,000.00,029.7,028.2,000.0,038.3,031.2,30.1,0000.0,0008.14,0004.45,0004.01
2023-06-12 01:45:00,SystemResetWarning,0831.1,5.00,000.00,029.7,028.2,000.0,038.3,031.2,30.2,0000.0,0008.11,0004.43,0004.00
2023-06-12 01:46:00,SystemResetWarning,0831.1,4.99,000.00,029.7,028.2,000.0,038.3,031.2,30.2,0000.0,0008.01,0004.42,0004.00
2023-06-12 01:47:00,SystemResetWarning,0831.1,4.99,000.00,029.7,028.2,000.0,038.3,031.1,30.4,0000.0,0008.11,0004.43,0004.01
2023-06-12 01:48:00,SystemResetWarning,0831.1,5.00,000.00,029.7,028.2,000.0,038.3,031.1,30.2,0000.0,0008.01,0004.42,0004.01
2023-06-12 01:49:00,SystemResetWarning,0831.1,5.00,000.00,029.7,028.2,000.0,038.3,031.1,30.2,0000.0,0008.43,0004.41,0004.01
2023-06-12 01:50:00,SystemResetWarning,0831.1,5.00,000.00,029.7,028.2,000.0,038.3,031.1,30.5,0000.0,0009.79,0004.44,0004.01
2023-06-12 01:51:00,SystemResetWarning,0831.1,5.00,000.00,029.7,028.2,000.0,038.3,031.2,30.6,0000.0,0009.97,0004.45,0004.01
2023-06-12 01:52:00,SystemResetWarning,0831.0,5.00,000.00,029.7,028.2,000.0,038.3,031.2,30.5,0000.0,0010.00,0004.45,0004.02
2023-06-12 01:53:00,SystemResetWarning,0831.0,5.00,000.00,029.7,028.2,000.0,038.3,031.2,30.6,0000.0,0009.72,0004.48,0004.03
2023-06-12 01:54:00,SystemResetWarning,0831.0,5.00,000.00,029.7,028.2,000.0,038.3,031.2,30.5,0000.0,0010.58,0004.52,0004.03
2023-06-12 01:55:00,SystemResetWarning,0830.9,5.00,000.00,029.7,027.9,000.0,038.3,031.2,30.4,0000.0,0011.22,0004.53,0004.01
2023-06-12 01:56:00,SystemResetWarning,0830.9,4.98,000.00,029.7,025.9,000.0,038.2,031.2,30.1,0000.0,0011.19,0004.51,0003.98
2023-06-12 01:57:00,SystemResetWarning,0830.8,5.02,000.00,029.7,024.7,000.0,038.2,031.2,29.8,0000.0,0011.26,0004.52,0003.96
2023-06-12 01:58:00,SystemResetWarning,0830.7,5.00,000.00,029.6,024.7,000.0,038.1,030.8,29.9,0000.0,0011.20,0004.50,0003.94
2023-06-12 01:59:00,SystemResetWarning,0830.7,5.00,000.00,029.5,025.0,000.0,038.1,030.6,30.4,0000.0,0011.16,0004.46,0003.90
